Location: Unspecified
(0.0000°N, 0.0000°E)
Time: 06:48:46
(UTC+00:00)

CUTE-I - Pass Details

Date: 09 December 2017
Orbit: 811 x 825 km, 98.7° (Epoch: 21 April)

Event Time Altitude Azimuth Distance (km) Brightness Sun altitude
Rises 18:13:18 0° 175° (S) 3,357 ? -4.8°
Reaches altitude 10° 18:15:40 10° 178° (S) 2,424 ? -5.3°
Maximum altitude 18:20:57 61° 257° (WSW) 934 ? -6.5°
Drops below altitude 10° 18:26:14 10° 337° (NNW) 2,416 ? -7.7°
Sets 18:28:36 0° 341° (NNW) 3,346 ? -8.3°
